Location: *
(45.9500°N, 9.0833°E)
Time: 00:22:27
(UTC+00:00)

Tiros 1 despin weight - Pass Details

Date: 30 June 2021
Orbit: 593 x 642 km, 48.2° (Epoch: 02 August)

Event Time Altitude Azimuth Distance (km) Brightness Sun altitude
Rises 05:00:10 0° 284° (WNW) 2,840 ? 11.9°
Reaches altitude 10° 05:02:28 10° 286° (WNW) 1,932 ? 12.3°
Maximum altitude 05:06:53 77° 13° (NNE) 612 ? 13.0°
Drops below altitude 10° 05:11:18 10° 100° (E) 1,921 ? 13.8°
Sets 05:13:35 0° 102° (ESE) 2,822 ? 14.1°
